2023/02/18 00:00:00,19.1, 4.7
2023/02/18 00:10:00,18.9, 4.8
2023/02/18 00:20:00,18.9, 4.7
2023/02/18 00:30:00,18.9, 4.0
2023/02/18 00:40:00,18.8, 4.3
2023/02/18 00:50:00,18.7, 4.9
2023/02/18 01:00:00,18.6, 4.8
2023/02/18 01:10:00,18.5, 5.0
2023/02/18 01:20:00,18.4, 5.0
2023/02/18 01:30:00,18.4, 4.3
2023/02/18 01:40:00,18.4, 4.3
2023/02/18 01:50:00,18.4, 5.0
2023/02/18 02:00:00,18.3, 5.1
2023/02/18 02:10:00,18.4, 5.4
2023/02/18 02:20:00,18.5, 5.2
2023/02/18 02:30:00,18.4, 5.4
2023/02/18 02:40:00,18.3, 5.4
2023/02/18 02:50:00,18.3, 5.0
2023/02/18 03:00:00,18.3, 5.0
2023/02/18 03:10:00,18.2, 4.7
2023/02/18 03:20:00,18.1, 4.5
2023/02/18 03:30:00,18.1, 4.6
2023/02/18 03:40:00,18.1, 4.5
2023/02/18 03:50:00,18.0, 4.5
2023/02/18 04:00:00,17.9, 4.4
2023/02/18 04:10:00,17.9, 4.0
2023/02/18 04:20:00,17.9, 3.9
2023/02/18 04:30:00,17.7, 4.3
2023/02/18 04:40:00,17.7, 4.1
2023/02/18 04:50:00,17.8, 4.6
2023/02/18 05:00:00,17.8, 4.2
2023/02/18 05:10:00,17.8, 4.3
2023/02/18 05:20:00,17.7, 4.3
2023/02/18 05:30:00,17.5, 4.6
2023/02/18 05:40:00,17.6, 4.7
2023/02/18 05:50:00,17.5, 4.1
2023/02/18 06:00:00,17.5, 4.7
2023/02/18 06:10:00,17.5, 4.8
2023/02/18 06:20:00,17.4, 4.6
2023/02/18 06:30:00,17.4, 5.2
2023/02/18 06:40:00,17.4, 4.7
2023/02/18 06:50:00,17.4, 4.6
2023/02/18 07:00:00,17.3, 4.4
2023/02/18 07:10:00,17.2, 4.4
2023/02/18 07:20:00,17.3, 4.3
2023/02/18 07:30:00,17.2, 4.5
2023/02/18 07:40:00,17.2, 4.1
2023/02/18 07:50:00,17.1, 4.3
2023/02/18 08:00:00,17.2, 5.1
2023/02/18 08:10:00,17.2, 4.8
2023/02/18 08:20:00,17.2, 5.0
2023/02/18 08:30:00,17.2, 4.6
2023/02/18 08:40:00,17.1, 5.4
2023/02/18 08:50:00,16.8, 5.8
2023/02/18 09:00:00,16.8, 5.7
2023/02/18 09:10:00,16.7, 5.1
2023/02/18 09:20:00,16.8, 5.4
2023/02/18 09:30:00,16.7, 5.8
2023/02/18 09:40:00,16.7, 5.9
2023/02/18 09:50:00,16.6, 5.7
2023/02/18 10:00:00,16.4, 5.6
2023/02/18 10:10:00,16.1, 6.1
2023/02/18 10:20:00,16.0, 5.8
2023/02/18 10:30:00,15.9, 5.6
2023/02/18 10:40:00,15.8, 5.8
2023/02/18 10:50:00,15.7, 6.1
2023/02/18 11:00:00,15.6, 6.2
2023/02/18 11:10:00,15.5, 5.9
2023/02/18 11:20:00,15.5, 6.2
2023/02/18 11:30:00,15.5, 6.1
2023/02/18 11:40:00,15.5, 6.5
2023/02/18 11:50:00,15.3, 6.3
2023/02/18 12:00:00,15.1, 6.2
2023/02/18 12:10:00,14.7, 6.5
2023/02/18 12:20:00,14.6, 6.6
2023/02/18 12:30:00,14.5, 6.1
2023/02/18 12:40:00,14.4, 6.9
2023/02/18 12:50:00,14.4, 6.7
2023/02/18 13:00:00,14.4, 6.6
2023/02/18 13:10:00,14.4, 6.2
2023/02/18 13:20:00,14.3, 6.5
2023/02/18 13:30:00,14.1, 6.5
2023/02/18 13:40:00,14.1, 7.1
2023/02/18 13:50:00,14.0, 6.4
2023/02/18 14:00:00,14.0, 6.6
2023/02/18 14:10:00,14.1, 6.6
2023/02/18 14:20:00,14.1, 6.7
2023/02/18 14:30:00,13.9, 6.5
2023/02/18 14:40:00,13.8, 6.8
2023/02/18 14:50:00,13.8, 6.8
2023/02/18 15:00:00,13.6, 7.0
2023/02/18 15:10:00,13.7, 7.0
2023/02/18 15:20:00,13.6, 7.1
2023/02/18 15:30:00,13.1, 6.6
2023/02/18 15:40:00,13.1, 7.2
2023/02/18 15:50:00,13.2, 7.1
2023/02/18 16:00:00,13.3, 7.2
2023/02/18 16:10:00,13.1, 6.7
2023/02/18 16:20:00,12.9, 6.9
2023/02/18 16:30:00,12.3, 7.3
2023/02/18 16:40:00,12.1, 7.5
2023/02/18 16:50:00,12.1, 6.9
2023/02/18 17:00:00,12.2, 7.0
2023/02/18 17:10:00,12.2, 6.5
2023/02/18 17:20:00,12.2, 6.7
2023/02/18 17:30:00,12.2, 6.1
2023/02/18 17:40:00,12.1, 5.8
2023/02/18 17:50:00,12.1, 6.5
2023/02/18 18:00:00,12.1, 6.4
2023/02/18 18:10:00,12.3, 6.8
2023/02/18 18:20:00,12.2, 7.1
2023/02/18 18:30:00,12.2, 6.7
2023/02/18 18:40:00,12.2, 7.0
2023/02/18 18:50:00,12.3, 6.7
2023/02/18 19:00:00,12.5, 7.1
2023/02/18 19:10:00,12.4, 6.8
2023/02/18 19:20:00,12.4, 6.8
2023/02/18 19:30:00,12.3, 6.6
2023/02/18 19:40:00,12.2, 6.3
2023/02/18 19:50:00,12.2, 6.3
2023/02/18 20:00:00,12.0, 6.6
2023/02/18 20:10:00,12.0, 6.9
2023/02/18 20:20:00,12.0, 6.5
2023/02/18 20:30:00,11.8, 5.9
2023/02/18 20:40:00,11.7, 6.5
2023/02/18 20:50:00,11.8, 6.7
2023/02/18 21:00:00,11.7, 6.3
2023/02/18 21:10:00,11.6, 6.6
2023/02/18 21:20:00,11.4, 7.1
2023/02/18 21:30:00,11.4, 6.9
2023/02/18 21:40:00,11.5, 7.3
2023/02/18 21:50:00,11.5, 7.5
2023/02/18 22:00:00,11.5, 7.0
2023/02/18 22:10:00,11.4, 7.0
2023/02/18 22:20:00,11.2, 6.6
2023/02/18 22:30:00,11.1, 6.4
2023/02/18 22:40:00,11.0, 6.8
2023/02/18 22:50:00,11.0, 6.7
2023/02/18 23:00:00,11.0, 7.5
2023/02/18 23:10:00,11.0, 7.3
2023/02/18 23:20:00,11.0, 6.9
2023/02/18 23:30:00,11.0, 7.8
2023/02/18 23:40:00,11.1, 7.5
2023/02/18 23:50:00,11.2, 7.5
